Find Galaxy 8i

NORAD ID: 25086 Int'l Des: 1997-078 Owner: PAN Country: US operational
HEOCIRCULAR

現在のビュー

3D地球を読み込み中...

About Galaxy 8i

Galaxy 8i (NORAD 25086) is a satellite launched Dec 8, 1997 by PAN of US. It operates in HEO, CIRCULAR orbit with a mass of 3558.00 kg.

次回通過

Passes for default location (London). Set your location on the main map for personalized predictions.

高度履歴

Loading altitude history...

軌道要素

1 25086U 97078A 26194.73885997 -.00000100 00000-0 00000+0 0 9991
2 25086 14.0663 9.6952 0007423 64.3108 302.1532 0.99707232104215
Epoch: Jul 13, 2026 • Age: 17 hours

現在のステータス

高度 35978.2 km
遠地点 / 近地点 N/A
速度 3.07 km/s
衛星直下点 -13.93°S, 176.83°E
打ち上げ日 Dec 8, 1997
運用期間 28.5 years
タイプ other

技術仕様

分類 Payload
質量 3558.00 kg
乾燥質量 1962.00 kg
総質量 3558.00 kg
長さ 4.00 m
直径 3.20 m
スパン 26.20 m
形状 Box + 2 Pan
製造者 HSES
バスタイプ HS-601HP
フェーズステータス Renamed
所有者/国 PAN/US

Most Searched